Theta_e
331 333 335 335 334 336 337 338 338 338 344 345 344 342 344 344 351 351 342 348 350 348 345 342 341 343 346 343 346 345 345 348 349 349 348 348 349 349 349 349 348 349 350 349
330 334 333 336 337 338 339 340 340 338 343 342 346 346 346 346 347 352 349 341 346 345 343 342 340 341 342 342 343 345 342 343 349 349 349 348 349 350 350 350 350 349 350 348
333 334 334 338 337 339 339 339 339 340 340 343 345 342 346 347 346 342 350 346 341 343 344 343 342 341 341 340 339 339 340 346 345 350 349 349 351 351 351 351 351 351 350 346
333 332 338 338 337 337 340 336 338 338 340 341 339 344 339 346 345 342 340 349 346 342 345 344 342 340 341 338 338 344 345 348 344 348 349 350 351 351 351 349 350 349 344 336
335 336 338 340 337 338 338 336 337 336 337 333 339 334 333 343 345 339 350 349 348 345 344 344 342 341 340 339 341 344 348 349 349 350 350 352 352 352 350 340 344 342 347 342
333 333 335 336 337 338 338 338 328 329 329 334 332 334 334 343 339 340 345 351 348 345 344 343 343 342 342 343 342 344 351 351 351 351 353 352 352 350 347 345 347 351 351 351
328 331 336 337 336 338 335 335 337 333 332 334 332 336 337 342 338 337 338 345 346 345 344 342 343 343 343 345 344 346 353 353 352 353 354 354 352 352 351 352 352 351 350 350
329 331 331 334 336 337 339 335 343 339 332 332 335 342 342 344 339 338 341 345 347 346 345 341 342 346 345 347 344 347 355 353 352 354 354 354 353 352 351 349 351 348 344 344
322 324 324 331 333 335 336 334 330 325 325 335 338 348 344 342 340 342 349 351 349 348 346 344 341 344 347 348 346 353 357 354 355 354 353 351 350 349 348 343 342 340 335 333
322 323 321 322 325 326 331 328 329 322 330 354 353 351 347 346 343 346 349 352 356 355 350 348 347 348 349 349 351 355 355 355 353 352 349 345 342 340 337 333 331 330 330 330
316 318 323 321 319 320 321 325 321 321 326 349 355 350 341 342 339 344 348 352 358 358 357 355 354 356 356 357 357 349 341 352 350 347 339 335 334 332 331 331 331 331 331 331
315 316 320 319 318 319 321 321 321 324 324 331 345 342 338 343 343 348 348 352 356 357 356 355 354 355 354 353 353 348 349 343 341 338 334 332 331 332 332 332 331 331 331 332
316 316 319 319 317 319 323 322 319 318 320 332 340 337 337 340 342 350 348 351 356 355 352 349 347 348 346 347 347 342 338 336 334 332 331 332 332 331 332 331 331 330 331 332
323 312 318 322 319 321 327 330 322 320 323 325 331 333 338 339 343 347 345 350 354 353 350 348 345 344 340 341 338 334 331 331 332 331 331 331 331 331 330 330 329 327 330 330
316 318 315 317 319 324 325 327 328 326 324 329 328 334 335 337 340 344 340 348 349 348 346 347 341 332 332 332 331 329 330 331 331 331 331 330 330 329 329 328 324 326 328 327
318 316 318 321 322 324 327 329 333 331 329 327 330 335 331 335 338 341 338 346 349 346 344 340 334 331 330 329 329 329 329 330 331 331 330 330 330 329 328 325 324 326 326 326
321 314 317 322 320 322 321 338 339 338 339 333 334 332 335 339 341 340 339 341 349 345 340 335 334 332 331 329 330 329 329 329 330 330 330 330 329 328 326 324 324 325 325 325
329 316 315 319 320 323 321 335 336 340 340 339 336 335 336 337 338 340 338 341 342 345 339 334 334 332 331 331 331 329 329 329 329 330 330 329 329 327 325 324 324 325 324 324
329 323 333 320 319 326 337 337 339 337 340 339 340 338 337 339 339 339 339 343 344 340 335 335 335 333 333 332 332 331 330 329 329 329 329 329 328 325 325 325 325 324 325 323
331 329 333 337 332 337 339 336 335 335 341 336 341 342 338 337 344 343 341 342 343 338 338 337 337 336 335 333 333 331 330 329 329 329 329 328 327 325 325 324 324 325 324 321
336 337 337 338 339 340 336 339 336 334 336 334 338 339 341 340 339 334 336 346 339 340 341 337 334 338 337 335 333 331 329 329 328 328 328 327 325 322 324 325 326 325 323 323
336 341 341 339 341 342 341 338 340 336 336 336 336 339 338 336 333 343 344 341 340 338 336 338 339 337 337 336 334 330 330 329 329 328 328 325 323 323 323 325 322 322 322 324
339 338 342 339 343 337 340 339 339 337 337 338 337 335 334 334 339 344 342 341 340 341 340 339 337 335 335 335 333 331 331 330 329 327 326 324 325 325 324 323 322 322 323 324
337 337 339 339 336 336 334 333 338 339 340 338 336 338 340 340 343 341 339 339 337 337 336 335 334 332 331 332 333 334 331 328 327 326 325 324 325 326 325 325 324 324 323 323
332 336 337 339 337 337 336 333 339 340 340 340 337 340 342 343 341 339 337 337 335 334 334 334 332 332 334 334 332 330 328 327 326 324 323 322 323 323 323 323 323 323 322 322
331 333 335 336 335 337 338 334 337 340 339 340 338 337 341 341 340 337 336 335 335 333 333 333 333 332 331 329 328 328 327 326 324 322 321 321 321 320 320 321 320 319 321 321
Wind_Speed
4 6 0 4 4 4 5 2 3 6 3 5 6 4 10 9 6 10 9 9 5 8 10 10 13 17 17 15 22 20 17 15 18 16 14 14 15 15 13 13 11 15 14 13
6 2 5 6 6 6 5 4 6 5 5 3 4 7 5 10 7 11 12 9 8 5 7 9 12 16 17 22 18 24 22 20 21 21 17 14 12 10 14 13 11 13 14 12
5 4 3 5 3 5 3 4 2 3 3 2 3 7 4 6 6 8 12 14 13 14 12 7 9 14 16 17 16 20 22 22 24 23 20 16 12 10 8 13 14 13 11 12
4 3 8 5 2 4 2 6 4 5 4 6 3 4 5 4 4 4 8 16 16 15 8 4 7 14 16 11 16 16 19 19 19 22 19 17 17 12 9 10 10 8 6 4
7 1 3 1 6 5 9 2 2 4 4 5 2 3 6 6 5 4 2 6 11 14 12 11 9 13 12 12 14 15 17 18 19 21 19 17 12 9 8 5 4 7 7 10
6 1 6 7 4 2 4 5 9 5 4 2 5 5 5 3 6 5 4 9 12 12 11 8 12 11 13 16 13 11 11 15 17 17 18 12 8 10 8 5 3 5 5 3
5 2 3 4 1 3 5 5 3 3 3 6 1 3 7 4 9 8 8 8 10 11 11 8 8 13 16 20 10 10 9 13 17 16 15 11 9 8 5 5 5 5 4 1
5 7 6 3 8 8 4 7 6 5 3 3 3 4 5 4 5 6 8 9 9 12 10 11 12 15 15 18 14 17 15 13 18 16 13 10 9 8 8 6 6 4 2 1
6 7 4 5 4 7 4 6 6 7 3 3 3 6 9 10 7 7 9 10 8 12 14 14 16 18 16 17 16 17 17 22 16 15 13 11 9 8 7 8 6 3 1 2
7 3 5 5 4 4 7 4 2 2 4 3 3 5 6 3 4 7 8 10 6 5 6 7 8 13 16 16 15 10 10 15 17 15 13 12 10 10 8 6 4 1 2 3
7 5 9 2 4 8 3 2 4 5 5 6 3 6 7 9 8 10 9 9 11 11 9 8 10 16 22 20 20 23 20 18 17 14 12 10 10 8 6 3 2 2 2 2
9 6 7 12 4 1 4 7 8 5 6 0 4 6 3 7 4 9 10 9 8 9 10 8 11 15 17 21 20 23 22 20 18 14 10 9 9 8 6 2 0 1 2 2
8 2 3 10 7 4 3 4 4 3 4 7 6 6 2 3 3 4 9 9 8 9 8 6 9 12 18 24 26 26 23 20 17 15 12 11 9 7 4 2 1 2 1 1
10 5 8 10 9 4 3 3 5 6 4 5 6 4 7 7 9 6 7 8 11 12 13 10 7 10 20 26 27 25 22 21 21 17 13 11 8 6 3 2 4 3 3 2
4 9 6 7 2 4 6 4 4 6 5 6 7 10 12 18 17 13 7 8 12 12 11 12 10 9 17 24 27 25 23 23 20 17 12 9 8 5 3 3 4 2 2 1
3 2 6 3 3 2 4 4 2 4 3 7 1 7 4 6 9 9 11 12 15 14 14 12 11 14 19 23 29 26 23 21 18 17 13 10 9 6 3 1 1 1 1 2
3 4 2 2 3 5 4 5 4 2 2 4 6 9 6 7 11 15 13 15 17 16 16 15 15 19 22 26 31 27 24 22 19 15 12 10 9 5 4 2 2 2 3 5
2 3 3 2 3 0 5 4 1 4 2 6 9 6 7 3 6 7 16 18 16 16 15 13 16 19 21 26 28 26 23 20 18 15 13 11 8 6 4 3 3 4 4 6
5 4 4 3 3 3 4 6 5 3 3 3 5 3 7 7 5 1 6 3 5 4 6 12 6 8 24 29 28 26 23 21 18 17 15 11 8 7 6 5 5 6 6 8
5 6 4 3 3 5 5 6 3 3 5 5 5 7 3 3 2 1 5 8 10 22 26 23 4 15 16 24 26 24 21 17 15 13 13 10 7 7 8 6 5 5 6 9
4 4 4 3 3 5 4 8 4 3 6 5 3 3 3 2 3 3 5 4 20 25 29 24 28 24 26 28 26 24 21 18 13 12 13 11 9 7 7 7 7 7 6 4
5 5 3 1 4 5 2 4 7 4 4 6 4 1 3 6 7 6 5 6 11 10 19 19 20 22 27 27 26 21 18 12 10 11 13 10 8 7 6 7 7 8 7 7
2 5 4 6 4 3 3 5 1 3 4 2 3 4 5 3 4 7 2 2 5 10 13 18 20 24 27 26 24 18 15 14 15 15 13 10 9 8 6 7 6 7 8 9
3 4 1 2 4 2 2 6 5 6 5 3 3 4 4 1 4 6 5 6 6 12 15 22 24 21 25 21 17 13 15 17 16 13 12 10 9 10 11 11 9 11 12 13
4 4 4 4 5 2 8 9 7 6 8 7 2 4 6 7 11 1 7 7 9 13 16 21 23 24 21 19 15 14 16 16 15 11 9 9 9 9 11 13 13 15 16 15
5 6 5 5 4 4 6 5 8 11 7 8 6 5 8 9 7 2 4 10 14 18 20 21 24 22 19 16 15 15 15 14 11 9 10 10 9 9 11 12 12 12 17 17
Wind_Direction
8 53 246 231 173 212 135 144 335 321 133 151 204 211 192 189 195 174 180 207 197 220 200 204 230 236 216 195 196 210 204 201 204 205 195 201 215 232 242 254 253 247 248 248
21 287 216 200 154 112 64 6 301 281 139 177 144 248 195 156 204 200 187 204 209 233 237 163 208 209 225 216 192 192 221 216 212 211 212 215 229 244 247 257 251 249 245 242
155 238 187 256 232 119 181 180 244 252 24 69 120 313 288 150 167 179 201 203 211 207 229 168 208 222 223 230 229 226 212 202 211 207 218 228 247 247 238 237 241 244 242 253
216 259 197 229 280 119 265 180 183 284 128 250 102 268 310 294 262 244 209 193 200 210 229 208 188 222 230 247 215 204 201 209 206 209 227 228 231 238 241 242 249 255 248 214
238 142 202 215 230 174 253 26 36 252 150 53 352 59 277 349 301 279 125 152 183 205 209 194 223 222 236 233 194 200 199 210 206 217 216 229 231 226 222 225 267 253 260 260
230 164 145 215 241 198 354 15 28 37 79 359 240 129 285 177 227 250 261 178 184 202 213 207 215 222 228 229 202 193 201 212 218 214 221 232 210 208 205 216 234 270 257 251
340 222 234 180 136 42 77 57 333 350 16 221 358 104 250 174 202 211 210 209 186 193 203 195 209 219 219 231 213 185 196 210 221 222 223 214 196 194 192 185 165 135 155 314
187 297 177 209 190 202 178 153 164 206 213 263 4 242 252 172 185 223 186 181 161 187 200 200 209 218 226 222 212 192 189 185 230 217 207 167 167 166 152 142 152 147 104 104
165 255 245 203 186 128 204 195 219 98 23 57 266 292 308 134 185 157 130 136 154 189 199 204 203 210 208 218 199 194 201 197 192 165 151 149 150 160 149 135 138 138 148 307
224 286 224 255 177 232 168 171 13 26 145 168 280 287 233 280 177 130 127 141 135 142 162 175 176 188 207 211 196 175 195 187 167 153 147 142 147 145 142 138 128 90 341 331
146 140 262 49 184 221 63 254 49 125 132 151 160 257 208 214 189 173 168 160 160 161 160 164 158 167 182 179 172 150 199 177 146 150 140 136 143 146 150 146 78 26 12 22
199 167 243 218 234 219 170 227 175 151 240 185 155 265 228 225 126 169 169 165 164 166 154 155 149 157 149 153 161 158 153 150 147 150 150 148 154 154 150 154 60 349 339 333
179 219 278 321 349 11 215 198 152 120 92 188 150 255 280 154 184 178 164 157 151 158 134 134 134 143 141 141 145 149 155 155 156 154 154 157 164 170 168 195 286 294 270 271
114 140 165 224 215 170 245 206 165 116 121 178 225 222 245 222 210 178 173 156 160 171 163 160 154 159 152 155 157 159 156 155 152 153 158 167 176 186 197 270 292 280 235 226
111 186 176 224 205 199 217 233 150 178 204 169 235 199 224 199 197 184 159 155 157 163 167 170 162 164 162 161 165 165 157 156 159 156 166 177 176 183 213 295 303 266 211 332
359 229 164 146 177 167 276 296 117 205 152 286 215 244 276 117 131 153 169 166 174 176 174 175 169 173 172 169 169 168 158 153 165 160 169 176 175 184 210 252 201 220 278 348
37 118 77 222 11 55 354 331 323 325 359 142 186 232 152 131 159 184 171 188 180 180 182 183 179 182 176 176 173 170 160 154 164 164 169 177 179 200 211 252 218 199 257 294
110 77 56 168 45 87 242 295 104 126 71 306 276 240 141 62 71 164 188 179 185 188 185 183 178 181 182 180 174 169 165 160 165 168 179 185 190 204 210 228 260 270 273 298
35 117 71 121 144 270 8 352 346 3 291 315 302 22 44 95 106 165 157 105 192 150 113 95 77 179 186 183 178 173 168 171 175 175 185 193 205 217 218 230 252 270 272 304
19 64 103 90 117 197 233 284 274 242 337 335 24 6 50 18 90 136 135 157 102 110 103 105 141 216 205 189 183 173 172 175 179 186 197 199 210 225 225 228 231 264 282 300
357 3 108 135 144 279 237 279 299 128 244 333 359 305 310 60 216 273 357 151 144 140 154 168 185 190 195 195 188 178 175 185 189 192 193 198 216 208 214 225 252 248 281 284
189 140 199 113 114 245 135 299 144 180 324 312 323 332 345 8 329 353 79 123 149 156 162 143 157 170 188 187 187 177 180 183 196 198 200 208 209 204 212 219 262 250 253 277
259 183 197 180 231 251 135 193 215 160 190 315 82 60 61 38 325 10 34 95 102 109 124 144 156 168 181 180 181 173 192 197 190 191 207 213 213 220 219 230 233 242 253 270
262 174 172 37 264 284 290 281 200 186 158 166 118 101 62 101 63 88 68 75 86 104 130 151 153 148 155 161 179 200 192 187 188 200 218 217 230 240 242 248 250 258 263 264
201 135 197 267 302 333 241 236 231 188 164 128 145 154 114 113 78 124 129 126 131 143 146 152 147 147 157 175 188 198 193 187 198 212 226 229 232 243 255 258 261 258 261 262
185 188 180 222 224 187 238 197 183 251 162 139 118 31 69 91 135 110 139 143 145 141 152 154 156 162 168 177 184 185 190 197 211 222 230 236 242 268 259 265 273 261 252 256